Location: Six Mile Lake
(44.9000°N, 79.7170°W)
Time: 22:24:41
(UTC-04:00)

SO-50 - Visible Passes

Search period start: 01 July 2022 00:00
Search period end: 11 July 2022 00:00
Orbit: 586 x 697 km, 64.6° (Epoch: 01 July)

Date Brightness Start Highest point End Pass type
(mag) Time Alt. Az. Time Alt. Az. Time Alt. Az.
01 Jul ? 01:14:42 42° ESE 01:14:44 42° ESE 01:19:18 10° NE visible
01 Jul ? 02:52:15 16° W 02:55:17 31° NW 02:59:39 10° NNE visible
01 Jul ? 04:37:08 10° NNW 04:37:18 10° NNW 04:37:28 10° NNW visible
02 Jul ? 00:00:33 12° E 00:00:33 12° E 00:01:29 10° E visible
02 Jul ? 01:38:06 56° SW 01:39:07 87° NW 01:43:59 10° NE visible
02 Jul ? 03:16:54 10° WNW 03:20:16 19° NNW 03:23:42 10° N visible
03 Jul ? 00:23:54 28° ESE 00:23:54 28° ESE 00:27:36 10° NE visible
03 Jul ? 02:01:27 25° WSW 02:03:44 42° NW 02:08:22 10° NNE visible
03 Jul ? 03:43:35 10° NW 03:45:28 12° NNW 03:47:22 10° N visible
04 Jul ? 00:47:10 59° SSE 00:47:43 65° ESE 00:52:31 10° NE visible
04 Jul ? 02:24:45 10° W 02:28:36 24° NW 02:32:32 10° NNE visible
04 Jul ? 23:32:48 19° ESE 23:32:48 19° ESE 23:35:41 10° ENE visible
05 Jul ? 01:10:20 34° WSW 01:12:13 59° NW 01:17:03 10° NNE visible
05 Jul ? 02:50:58 10° WNW 02:53:41 15° NNW 02:56:26 10° N visible
05 Jul ? 23:55:51 42° SE 23:56:23 44° ESE 00:00:59 10° NE visible
06 Jul ? 01:33:24 13° W 01:36:58 31° NW 01:41:18 10° NNE visible
06 Jul ? 22:41:14 13° ESE 22:41:14 13° ESE 22:43:17 10° E visible
07 Jul ? 00:18:45 35° SW 00:20:46 85° NW 00:25:39 10° NE visible
07 Jul ? 01:58:37 10° WNW 02:01:57 18° NNW 02:05:20 10° N visible
07 Jul ? 23:03:55 26° SE 23:05:06 30° ESE 23:09:17 10° NE visible
08 Jul ? 00:41:26 13° WSW 00:45:24 41° NW 00:50:01 10° NNE visible
08 Jul ? 02:25:20 10° NW 02:27:09 12° NNW 02:28:59 10° N visible
08 Jul ? 23:26:17 21° SSW 23:29:22 67° ESE 23:34:12 10° NE visible
09 Jul ? 01:06:27 10° W 01:10:16 23° NW 01:14:10 10° NNE visible
09 Jul ? 22:10:39 11° SSE 22:13:52 20° ESE 22:17:23 10° ENE visible
09 Jul ? 23:49:13 10° SW 23:53:53 58° NW 23:58:41 10° NNE visible
10 Jul ? 01:32:43 10° WNW 01:35:22 14° NNW 01:38:03 10° N visible
10 Jul ? 04:59:38 10° N 05:00:57 11° NNE 05:02:16 10° NE visible
10 Jul ? 22:33:34 10° S 22:38:02 45° ESE 22:42:38 10° NE visible
